Location: Newark
(50.7500°N, 2.2667°E)
Time: 20:20:12
(UTC+00:00)

N. Korean satellite - Visible Passes

Search period start: 11 November 2019 00:00
Search period end: 21 November 2019 00:00
Orbit: 456 x 506 km, 97.2° (Epoch: 10 November)

Date Brightness Start Highest point End Pass type
(mag) Time Alt. Az. Time Alt. Az. Time Alt. Az.
11 Nov 9.8 04:51:27 10° NE 04:54:01 17° E 04:56:34 10° SE visible
11 Nov 7.4 17:03:54 10° S 17:07:25 56° W 17:11:03 10° NNW visible
12 Nov 6.6 05:58:35 10° NNE 06:02:20 87° WNW 06:06:03 10° SSW visible
12 Nov 6.5 16:38:27 10° SSE 16:42:02 73° ENE 16:45:43 10° N visible
12 Nov 10.3 18:15:01 10° WSW 18:15:57 11° W 18:16:53 10° WNW visible
13 Nov 7.7 05:33:17 10° NNE 05:36:56 48° E 05:40:32 10° S visible
13 Nov 9.6 17:47:37 10° SW 17:50:18 20° W 17:53:02 10° NW visible
14 Nov 9.1 05:08:15 10° NE 05:11:26 26° E 05:14:34 10° SSE visible
14 Nov 8.4 17:21:24 10° SSW 17:24:45 36° W 17:28:11 10° NNW visible
15 Nov 10.0 04:43:41 10° NE 04:45:51 15° E 04:47:58 10° SE visible
15 Nov 6.7 06:15:54 10° N 06:19:34 55° WNW 06:23:12 10° SSW visible
15 Nov 7.0 16:55:40 10° S 16:59:17 70° WSW 17:02:59 10° NNW visible
16 Nov 6.8 05:50:28 10° NNE 05:54:13 77° ESE 05:57:55 10° S visible
16 Nov 10.1 18:05:54 10° WSW 18:07:43 13° W 18:09:33 10° WNW visible
17 Nov 8.2 05:25:15 10° NNE 05:28:47 39° E 05:32:15 10° SSE visible
17 Nov 9.2 17:39:07 10° SSW 17:42:06 24° W 17:45:08 10° NW visible
18 Nov 9.4 05:00:18 10° NE 05:03:14 22° E 05:06:08 10° SE visible
18 Nov 8.0 17:13:04 10° S 17:16:34 44° W 17:20:08 10° NNW visible
19 Nov 10.2 04:36:05 10° ENE 04:37:36 12° E 04:39:06 10° ESE visible
19 Nov 6.6 06:07:43 10° N 06:11:27 68° WNW 06:15:06 10° SSW visible
19 Nov 6.7 16:47:29 10° SSE 16:51:07 87° WSW 16:54:52 10° NNW visible
20 Nov 7.2 05:42:20 10° NNE 05:46:03 62° E 05:49:41 10° S visible
20 Nov 9.9 17:57:07 10° SW 17:59:28 16° W 18:01:50 10° NW visible
